Погода в Кудрявце

Россия / Калужская область     53°23′47″N   35°16′42″E
темп.,
°C
ветер,
м/с
пор.,
м/с
влажн.,
%
обл.,
%
осадки,
мм/ч
давл.,
гПа
погр.,
м
8 марта, пн
пн800:00−6зюз4138022 0.0 1002500
03:00−6зюз4129011 0.0 1002529
06:00−6з51293100 0.1 1002727
09:00−6з51188100 0.1 1003780
12:00−3зсз4779100 0.1 1005987
15:00−2зсз4674100 0.3 10061134
18:00−5ссз268397 0.3 1008223
21:00−9ссз229357 0.3 101037
9 марта, вт
вт900:00−10сз229466 0.0 101126
03:00−9ссз269582 0.2 1013297
06:00−10с3793100 0.2 1015400
09:00−12ссз368996 0.3 1017351
12:00−9ссз357588 0.0 1018852
15:00−7сз357294 0.1 10191097
18:00−9ссз3682100 0.1 1020580
21:00−11ссз2595100 0.2 1023292
10 марта, ср
ср1000:00−14ссз129556 0.0 102422
03:00−15ссз119630 0.0 102620
06:00−15с119787 0.0 102720
09:00−13всв118893 0.1 1028216
12:00−10в2283100 0.3 1028432
15:00−10всв2387100 0.9 1028446
18:00−11всв3590100 0.3 1028455
21:00−16в379280 0.4 1031196
11 марта, чт
чт1100:00−19в24910 0.0 1032121
03:00−21вюв24900 0.0 103487
06:00−21вюв248822 0.0 103496
09:00−18юв247741 0.0 1035196
12:00−12юв246319 0.0 1034399
15:00−11ююв356310 0.0 1033479
18:00−14юв25800 0.0 1032217
21:00−18юв27900 0.0 1033150
12 марта, пт
пт1200:00−19ююв37870 0.0 1033168
03:00−18ююв38880 0.0 1032228
06:00−17ююв388522 0.0 1031256
09:00−13ю5117916 0.0 1029357
12:00−8ююв5117563 0.0 1028514
15:00−6ю6127781 0.0 1026735
18:00−7ю61480100 0.0 1024834
21:00−7ю71578100 0.0 1024885